User: anonymous
Location: Caltech
(34.1382°N, 118.1253°W)
Time: 08:59:32
(UTC-07:00)
Language:

Cosmos 2251 Rocket - Orbit

View from above orbital plane
View from above orbital plane
View from above satellite
View from above satellite

Ground track
Ground track

The orbit data is extracted from the following two-line orbital elements,

1 22676U 93036B   14105.20235517  .00000150  00000-0  63288-4 0  1966
2 22676 074.0416 141.0629 0017655 090.8844 269.4331 14.33579293 89233
Epoch (UTC): 15 April 2014 04:51:23
Eccentricity: 0.0017655
inclination: 74.0416°
perigee height: 767 km
apogee height: 792 km
right ascension of ascending node: 141.0629°
argument of perigee: 90.8844°
revolutions per day: 14.33579293
mean anomaly at epoch: 269.4331°
orbit number at epoch: 8923

The dashed part of the orbit path shows where the satellite is in the earth's shadow,  

DLR